Dassault Systemes SA Pre-Tax Profit Margin 2006-2021 | DASTY

Current and historical pre-tax profit margin for Dassault Systemes SA (DASTY) from 2006 to 2021. Pre-tax profit margin can be defined as earnings before taxes as a portion of total revenue. Dassault Systemes SA pre-tax profit margin for the three months ending March 31, 2021 was .
Dassault Systemes SA Pre-Tax Profit Margin Historical Data
Date TTM Revenue TTM Pre-Tax Income Pre-Tax Margin
2021-03-31 $5.25B $0.85B 16.27%
2020-12-31 $5.09B $0.74B 14.51%
2020-09-30 $4.95B $0.66B 13.24%
2020-06-30 $4.76B $0.73B 15.36%
2020-03-31 $4.66B $0.82B 17.61%
2019-12-31 $4.50B $0.91B 20.29%
2019-09-30 $4.39B $1.01B 22.95%
2019-06-30 $4.33B $1.00B 23.06%
2019-03-31 $4.25B $1.01B 23.81%
2018-12-31 $4.11B $0.93B 22.55%
2018-09-30 $3.98B $0.92B 23.02%
2018-06-30 $3.90B $0.89B 22.94%
2018-03-31 $3.79B $0.88B 23.22%
2017-12-31 $3.65B $0.85B 23.27%
2017-09-30 $3.53B $0.78B 22.09%
2017-06-30 $3.46B $0.77B 22.29%
2017-03-31 $3.43B $0.74B 21.67%
2016-12-31 $3.38B $0.73B 21.68%
2016-09-30 $3.25B $0.71B 21.96%
2016-06-30 $3.18B $0.70B 21.96%
2016-03-31 $3.12B $0.70B 22.51%
2015-12-31 $3.15B $0.70B 22.29%
2015-09-30 $3.11B $0.66B 21.23%
2015-06-30 $3.07B $0.64B 20.82%
2015-03-31 $3.03B $0.60B 19.89%
2014-12-31 $2.93B $0.59B 20.22%
2014-09-30 $2.92B $0.63B 21.47%
2014-06-30 $2.89B $0.64B 22.12%
2014-03-31 $2.83B $0.66B 23.40%
2013-12-31 $2.77B $0.69B 25.01%
2013-09-30 $2.77B $0.68B 24.40%
2013-06-30 $2.73B $0.67B 24.43%
2013-03-31 $2.65B $0.67B 25.17%
2012-12-31 $2.63B $0.67B 25.42%
2012-09-30 $2.55B $0.63B 24.91%
2012-06-30 $2.50B $0.64B 25.69%
2012-03-31 $2.51B $0.61B 24.48%
2011-12-31 $2.46B $0.60B 24.29%
2011-09-30 $2.41B $0.59B 24.44%
2011-06-30 $2.33B $0.53B 22.56%
2011-03-31 $2.21B $0.48B 21.59%
2010-12-31 $2.07B $0.43B 20.54%
2010-09-30 $1.94B $0.39B 20.02%
2010-06-30 $1.85B $0.38B 20.35%
2010-03-31 $1.79B $0.34B 19.04%
2009-12-31 $1.78B $0.32B 17.81%
2009-09-30 $1.78B $0.33B 18.22%
2009-06-30 $1.82B $0.34B 18.65%
2009-03-31 $1.89B $0.39B 20.54%
2008-12-31 $1.95B $0.42B 21.39%
2008-09-30 $1.97B $0.42B 21.52%
2008-06-30 $1.91B $0.40B 20.71%
2008-03-31 $1.81B $0.37B 20.56%
2007-12-31 $1.73B $0.36B 20.58%
2007-09-30 $1.66B $0.35B 21.09%
2007-06-30 $1.60B $0.34B 21.35%
2007-03-31 $1.54B $0.32B 20.82%
2006-12-31 $1.46B $0.32B 21.59%
2006-09-30 $1.31B $0.18B 13.57%
2006-06-30 $1.22B $0.32B 25.98%
2006-03-31 $1.14B $0.33B 28.98%
2005-12-31 $1.10B $0.33B 30.27%
Sector Industry Market Cap Revenue
Computer and Technology Computer Software $73.462B $5.085B
Dassault Systemes is a worldwide recognized leader in CAD/CAM/CAE and PDM II markets. The company's mission to provide solutions to enable customersto build their digital enterprise, by defining, simulating, managing and optimizing concurrently product, manufacturing process, and resources. In this virtual space, customers create innovative, high quality, safe and affordable products. The company delivers scaleable process and design-centric solutions on both Unix and Windows NT environments.
Stock Name Country Market Cap PE Ratio
Microsoft (MSFT) United States $2145.821B 35.75
Adobe (ADBE) United States $296.145B 63.82
Oracle (ORCL) United States $243.295B 20.85
Salesforce, Inc (CRM) United States $224.027B 69.32
SAP SE (SAP) Germany $176.561B 22.46
Intuit (INTU) United States $144.819B 69.01
Autodesk (ADSK) United States $70.653B 121.64
VMware (VMW) United States $64.406B 29.97
Synopsys (SNPS) United States $43.940B 55.92
Cadence Design Systems (CDNS) United States $40.867B 57.23
ANSYS (ANSS) United States $32.112B 66.03
SS&C Technologies Holdings (SSNC) United States $20.050B 17.94
PTC (PTC) United States $15.828B 55.51
Nuance Communications (NUAN) United States $15.705B 144.47
Open Text (OTEX) Canada $14.096B 15.97
Citrix Systems (CTXS) United States $12.510B 29.46
Pegasystems (PEGA) United States $10.397B 0.00
Manhattan Associates (MANH) United States $10.155B 107.86
Aspen Technology (AZPN) United States $9.948B 0.00
Trend Micro (TMICY) Japan $7.376B 28.80
Descartes Systems Group (DSGX) Canada $6.149B 106.85
MicroStrategy (MSTR) United States $6.101B 113.20
ACI Worldwide (ACIW) United States $4.052B 21.99
Blackbaud (BLKB) United States $3.482B 52.07
CommVault Systems (CVLT) United States $3.467B 89.99
Cornerstone OnDemand (CSOD) United States $3.174B 21.31
Verint Systems (VRNT) United States $2.774B 16.60
Progress Software (PRGS) United States $1.995B 15.40
PROS Holdings (PRO) United States $1.921B 0.00
Bottomline Technologies (EPAY) United States $1.832B 144.14
QAD (QADB) United States $1.782B 141.07
Avid Technology (AVID) United States $1.690B 47.94
Sapiens (SPNS) Israel $1.378B 25.21
Canaan (CAN) China $1.088B 0.00
OptimizeRx (OPRX) United States $0.965B 2763.50
Simulations Plus (SLP) United States $0.950B 82.79
Magic Software Enterprises (MGIC) Israel $0.856B 22.39
American Software (AMSWA) United States $0.720B 84.61
Icad Inc (ICAD) United States $0.366B 0.00
Smith Micro Software (SMSI) United States $0.303B 70.75
ServiceSource (SREV) United States $0.149B 0.00
Park City (PCYG) United States $0.109B 51.00
Neonode (NEON) Sweden $0.062B 0.00
NetSol Technologies (NTWK) United States $0.053B 21.14
BSQUARE (BSQR) United States $0.042B 0.00
GSE Systems (GVP) United States $0.029B 0.00